sat.trackr.live / text

‹ back to catalog

FLOCK 4Q-29

NORAD 58304 · 2023-174BA

PAYLOAD ACTIVE UNKNOWN

§ Identity

Operator
Country
US
Launch date
2023-11-11
Launch site
AFWTR
Launch vehicle
Mass (kg)
RCS (m²)

Purposes: earth_obs

External: N2YO · Heavens-Above · Gunter

§ Orbital elements

Epoch: 2026-06-29T05:39:08.710272Z

Period
92.41 min
Inclination
97.3937°
Eccentricity
0.0003949
Mean motion
15.58278541 rev/d
Perigee alt
390.0 km
Apogee alt
395.3 km
Semi-major
6,770.8 km
B*
1.2650e-3
RAAN
272.4170°
Arg perigee
112.9567°
Mean anomaly
247.2106°
Rev number
14,763

§ Raw data

FLOCK 4Q-291 58304U 23174BA  26180.23551748  .00096662  00000+0  12650-2 0  99932 58304  97.3937 272.4170 0003949 112.9567 247.2106 15.58278541147638

JSON: /api/v1/satellites/58304 · /tle

For live sub-satellite position, see the globe view (requires WebGL).

§ Visibility from observer

Set your observer location to see the next 7 days of passes ≥ 10°. The values pass through the URL so the page stays shareable.

No JS? Fill the form by hand. The geolocation button needs JavaScript.